Theta_e
320 321 321 322 322 323 324 325 325 324 324 324 325 326 326 326 324 316 307 316 317 328 321 310 309 307 307 306 306 303 292 290 293 294 294 296 296 298 299 297 298 301 298 300 302
319 319 320 320 320 322 323 323 324 324 324 324 324 324 325 324 315 310 322 334 331 327 311 306 304 305 301 303 303 298 292 295 298 296 294 297 297 298 295 295 296 297 298 301 300
318 318 318 319 319 320 321 322 323 324 324 324 323 324 324 321 310 308 331 333 331 325 312 308 307 305 300 302 301 299 295 299 299 299 299 297 296 299 296 295 296 297 297 298 296
318 318 318 318 318 319 320 321 321 323 323 324 323 324 323 315 292 310 330 330 328 314 310 305 304 301 298 298 303 296 301 302 303 300 299 296 298 297 297 299 301 300 300 298 297
319 318 318 317 317 318 319 319 320 321 322 323 323 324 316 303 304 315 326 323 313 312 306 304 301 301 297 298 300 297 298 301 301 300 299 299 298 296 297 299 300 301 300 298 298
318 318 317 317 316 317 317 318 319 319 320 321 323 323 306 297 309 313 309 310 309 306 304 304 303 303 299 299 296 297 298 299 299 299 299 297 295 296 297 300 299 300 299 298 298
318 317 317 317 317 316 317 317 318 319 320 321 322 319 306 301 310 310 308 306 305 305 302 304 304 301 300 298 300 298 295 296 297 298 297 297 294 295 301 298 298 298 298 298 298
317 316 316 317 317 317 317 317 318 319 320 322 322 313 298 310 307 308 307 305 305 305 306 306 305 302 299 300 297 292 291 288 294 297 297 297 290 296 299 296 297 298 296 296 298
316 316 316 317 317 317 317 318 318 319 321 321 310 305 299 313 307 309 306 304 304 305 305 307 304 299 298 292 288 288 284 288 292 297 295 293 290 295 297 295 296 295 296 297 297
317 316 317 317 317 317 318 318 318 316 315 316 312 300 303 301 307 307 305 305 302 303 301 300 298 293 292 288 283 285 285 288 289 293 292 290 291 295 296 295 295 294 294 296 298
317 317 317 317 318 319 315 306 300 298 302 297 299 299 303 306 308 305 304 303 302 299 292 296 290 288 291 293 292 289 288 287 292 295 292 292 292 295 297 294 295 297 298 298 298
318 318 317 318 318 318 309 301 300 299 291 301 300 302 305 306 301 303 304 297 296 292 293 292 289 294 295 295 293 291 290 288 291 293 291 290 291 294 295 297 295 297 298 299 300
319 318 317 317 317 311 304 302 307 305 294 298 299 297 299 304 299 300 300 297 294 291 292 290 292 297 295 293 292 292 289 289 289 291 290 288 287 290 294 296 298 299 299 300 300
319 318 317 317 310 306 301 305 306 304 283 289 294 299 301 300 294 301 300 298 294 292 291 291 296 294 292 291 292 288 291 291 289 286 284 287 282 286 290 292 294 297 298 299 297
318 318 317 315 306 304 305 306 303 299 277 292 293 302 301 293 294 295 298 295 291 291 290 289 289 289 290 292 292 290 292 290 287 285 284 285 282 285 290 288 292 295 298 299 294
318 318 316 313 307 308 308 305 300 283 276 288 294 294 293 294 294 294 294 295 295 291 291 291 293 293 292 291 292 292 289 287 285 283 278 284 284 286 285 290 291 295 296 298 295
318 317 313 315 308 308 306 299 286 277 290 288 289 293 291 291 292 291 289 287 286 283 283 288 289 292 293 289 290 290 286 279 277 276 279 285 282 288 289 290 292 294 295 295 294
317 317 314 315 315 312 306 293 282 288 289 294 291 291 289 291 291 290 287 285 288 286 284 283 284 289 292 292 288 286 288 281 276 276 282 282 279 285 293 296 294 294 297 293 293
316 314 312 312 314 311 298 285 291 292 295 293 292 287 286 290 290 288 286 286 289 290 285 283 284 288 289 290 292 286 283 289 283 274 274 284 285 289 290 291 292 292 290 291 291
311 310 309 313 313 306 293 292 291 298 299 296 289 291 285 285 287 288 287 290 290 291 294 289 284 288 286 288 287 286 288 283 282 276 271 282 278 284 289 290 292 291 290 290 291
308 302 307 313 310 298 288 290 294 298 298 295 294 293 290 287 287 287 287 290 291 292 292 290 288 285 284 284 284 283 283 284 284 282 279 278 282 288 289 292 293 291 291 290 292
303 294 309 311 297 295 292 295 298 297 297 296 293 293 293 293 291 291 289 291 294 294 289 290 288 283 284 286 288 287 286 287 282 281 280 281 283 289 289 288 290 291 292 292 293
298 298 308 308 291 293 294 295 297 296 296 295 294 294 296 292 288 290 292 297 297 296 292 294 285 280 281 286 285 284 286 287 287 284 282 279 282 293 290 289 290 290 290 292 292
296 291 298 299 300 295 293 293 292 297 295 296 295 297 294 291 293 290 291 294 296 296 298 296 286 284 281 284 287 285 283 285 285 282 282 283 285 290 292 293 295 296 295 293 293
294 291 294 285 292 293 294 292 291 289 296 296 293 293 292 289 291 290 292 293 295 296 293 292 284 285 287 289 290 288 287 287 285 287 282 284 284 288 291 293 294 296 297 296 293
287 289 291 288 290 289 289 289 288 290 291 290 290 290 289 286 288 288 290 292 291 289 292 293 285 286 284 286 286 284 287 287 287 287 286 287 286 294 295 296 294 294 295 295 295
291 293 289 284 283 282 283 286 287 286 287 290 287 286 284 287 290 290 289 288 289 290 291 288 285 284 280 285 284 280 284 285 287 289 288 283 288 294 293 294 295 296 297 296 296
Wind_Speed
17 18 19 19 19 19 18 17 16 15 13 13 14 12 9 8 7 2 6 8 6 12 7 5 3 3 1 2 1 3 3 4 5 2 1 2 3 3 3 2 2 5 2 2 14
16 17 18 19 19 19 19 19 18 16 14 13 14 12 10 7 2 8 7 11 13 10 5 6 3 5 0 3 1 4 4 7 3 3 2 2 4 6 1 3 5 3 3 7 13
15 16 17 18 19 20 20 20 19 17 16 14 13 11 8 5 3 7 2 10 11 8 2 3 2 5 3 3 5 5 6 3 4 1 3 2 3 5 6 8 8 12 9 11 8
10 12 14 16 18 19 19 20 20 18 18 16 15 12 7 1 6 2 7 8 8 4 1 3 2 4 4 5 7 4 8 8 6 2 1 3 4 5 8 14 6 10 11 15 16
9 10 11 13 15 17 18 19 19 19 17 17 15 11 2 1 11 5 6 6 5 5 5 6 5 5 5 5 3 6 5 8 7 7 5 2 10 7 13 10 10 10 9 17 16
9 10 10 12 14 16 18 18 19 19 18 18 14 7 2 5 2 9 8 5 4 4 5 5 6 6 5 6 4 3 4 7 6 8 6 6 5 4 9 10 14 11 12 13 19
8 9 11 12 14 16 18 19 20 18 17 17 9 3 4 14 7 9 9 5 3 4 3 4 3 3 2 5 2 3 8 8 10 9 9 6 12 14 24 6 8 10 11 11 17
8 10 12 14 16 18 19 21 19 18 16 11 5 3 8 1 3 6 5 2 1 1 2 1 4 2 3 3 5 2 2 4 4 7 6 11 16 9 14 8 16 16 11 10 13
9 10 12 14 17 19 21 24 20 14 4 1 1 2 9 1 4 6 6 6 5 3 2 2 5 6 2 5 5 4 6 9 11 10 7 7 11 10 9 8 14 11 12 11 12
9 10 12 14 18 21 24 24 9 4 2 3 3 3 4 4 2 3 3 6 3 6 3 3 3 4 1 5 10 8 7 7 9 4 3 7 16 17 10 6 10 10 10 12 14
9 10 12 14 18 22 14 6 6 4 3 7 7 6 3 1 3 1 1 3 2 2 7 6 5 12 20 16 8 5 6 8 14 8 8 15 16 21 17 9 15 18 17 14 17
9 10 12 15 17 21 4 5 3 2 9 8 15 9 9 8 4 5 6 6 6 7 4 3 13 17 5 10 11 11 15 13 8 10 10 10 18 15 10 15 11 17 18 19 21
9 10 11 16 17 5 3 2 3 3 2 11 7 5 5 8 6 7 12 4 6 6 9 17 9 15 13 7 9 20 14 18 16 7 6 9 14 12 11 9 13 15 17 20 23
10 8 7 16 3 5 1 3 3 2 2 8 3 2 2 3 4 2 5 7 5 11 9 11 15 15 6 8 14 19 10 10 8 2 12 5 14 7 7 13 10 16 17 22 14
9 7 2 3 4 5 4 3 3 3 8 4 3 3 1 5 3 2 1 2 6 3 4 10 2 4 13 25 8 17 4 7 2 4 5 5 7 6 8 8 11 15 19 22 11
9 8 5 2 1 5 3 4 3 5 11 4 3 4 4 0 1 2 3 3 1 3 6 15 3 5 9 2 4 3 0 1 3 3 9 10 10 11 7 14 8 15 16 22 9
7 7 7 3 2 2 3 4 4 7 6 4 4 4 3 5 4 6 5 5 6 2 5 4 12 7 5 4 2 4 5 5 4 1 14 11 12 20 8 8 12 15 16 11 9
3 5 7 4 5 5 6 4 11 6 9 3 1 3 7 7 7 7 5 5 7 1 3 3 13 12 10 18 10 10 12 9 8 9 20 6 10 8 15 17 12 14 18 8 9
7 1 2 4 6 4 5 4 6 5 3 7 11 5 4 6 7 5 8 7 9 18 12 5 9 2 1 1 10 5 8 9 1 3 3 12 14 9 6 10 12 16 3 9 10
1 2 4 8 11 3 4 17 10 8 3 4 5 8 6 1 1 3 8 4 6 15 18 7 8 4 1 1 3 2 2 3 2 3 8 19 5 14 8 13 12 12 12 9 8
1 3 1 13 8 1 6 10 8 9 6 7 14 15 9 4 8 5 6 11 2 5 2 6 6 7 3 8 8 1 4 4 3 5 14 18 15 7 8 10 16 11 10 10 10
3 4 7 9 5 4 12 9 8 14 7 11 6 14 18 9 13 16 12 15 13 3 5 2 5 4 10 5 5 5 8 8 12 16 4 5 19 6 5 2 7 10 8 6 6
3 4 6 5 10 11 2 14 15 17 19 7 12 11 14 20 16 19 19 20 24 20 6 6 6 7 10 16 4 7 9 10 8 4 18 16 19 9 7 7 7 7 5 7 6
3 3 3 4 8 16 17 17 14 11 19 19 21 19 18 21 22 13 19 12 11 18 18 11 9 12 17 19 10 10 5 9 11 10 17 21 29 33 27 26 28 27 18 11 10
3 4 1 3 6 14 12 9 17 7 11 9 6 25 25 24 24 26 24 26 22 10 7 12 14 17 24 26 29 25 27 26 24 19 14 25 19 27 37 24 28 22 23 21 8
2 3 4 4 7 5 1 10 17 18 12 18 18 10 7 11 19 24 24 22 21 6 26 19 19 15 22 28 29 31 28 30 32 31 26 30 33 38 37 32 23 28 26 19 17
3 3 1 5 2 4 7 6 3 7 5 4 15 11 13 16 13 17 18 18 19 18 19 14 9 14 22 22 24 19 31 33 35 31 28 29 37 39 32 28 32 34 25 20 23
Wind_Direction
15 8 6 3 0 358 356 354 355 355 354 350 348 343 335 329 310 213 239 212 166 162 164 150 196 224 333 270 170 64 47 259 260 236 228 204 147 332 158 139 237 208 166 230 132
11 7 3 359 354 351 349 347 344 343 343 343 343 340 335 332 240 249 237 134 142 152 142 165 183 173 316 229 194 116 149 238 233 293 324 220 184 181 222 234 235 196 41 114 137
4 2 359 355 351 347 344 342 338 335 334 333 333 332 329 328 328 249 146 143 149 159 175 188 201 171 208 178 209 199 212 223 284 348 36 299 288 193 180 249 211 212 177 172 164
357 352 351 347 345 342 339 336 333 329 327 326 325 320 324 186 277 191 161 154 151 157 269 179 192 158 218 219 210 225 242 250 277 195 131 256 296 263 203 232 216 220 187 175 179
337 338 340 341 338 336 332 329 325 322 320 319 318 311 261 211 248 155 147 157 142 155 198 185 179 184 211 223 255 216 242 264 261 238 224 256 255 245 263 260 252 252 161 188 199
338 335 332 329 330 329 325 321 316 313 313 315 315 307 218 238 150 150 152 149 197 180 207 192 206 209 247 242 218 236 251 269 270 252 248 192 264 157 259 235 248 239 242 199 202
331 328 320 319 321 322 319 315 309 306 307 310 297 242 257 239 160 156 152 195 203 188 214 233 182 161 341 281 289 290 310 312 253 237 219 121 285 224 250 234 251 243 240 210 215
323 325 320 317 314 313 314 306 298 299 303 295 257 227 242 34 131 145 174 160 235 244 195 310 96 176 210 288 334 222 207 274 263 160 211 136 260 246 256 203 237 246 241 234 222
314 319 317 316 312 311 308 301 297 289 261 284 171 193 264 80 186 207 156 175 159 144 97 114 111 193 225 124 334 245 235 215 295 188 144 175 249 261 262 212 249 238 236 231 239
305 311 312 315 315 315 315 304 280 346 182 178 255 359 277 253 184 158 185 157 155 138 111 162 168 193 188 127 222 212 219 245 234 197 171 197 249 265 268 278 256 255 243 243 243
289 299 305 312 318 322 339 350 9 5 352 194 185 219 196 251 349 271 295 95 83 155 190 211 147 212 219 206 222 224 252 248 264 253 177 229 236 252 255 235 246 259 264 250 240
289 297 306 311 317 321 330 39 47 273 307 262 255 238 220 164 225 231 126 164 174 220 188 259 222 229 227 216 231 249 257 258 271 261 185 241 244 259 244 248 218 236 249 252 255
281 293 309 307 313 351 351 59 309 11 251 281 224 227 244 151 209 224 151 185 200 207 219 223 220 218 224 246 267 249 251 259 262 303 247 295 271 235 240 244 254 249 244 258 255
266 277 310 313 351 322 64 322 353 41 302 263 226 231 41 137 259 308 190 173 228 226 210 244 244 241 200 215 207 262 219 253 258 264 267 148 291 242 234 240 239 250 250 247 247
248 261 253 26 292 322 287 347 346 72 303 241 234 333 53 167 89 323 260 42 202 209 140 238 263 217 238 237 196 266 219 226 216 231 318 174 299 254 194 240 245 243 251 260 229
244 228 171 208 219 247 341 351 50 42 253 275 139 176 115 45 12 14 57 14 284 276 230 245 157 224 203 139 189 127 328 349 44 73 264 185 198 257 208 217 237 246 253 259 190
258 232 156 313 265 357 3 27 0 201 305 239 241 158 181 184 202 180 165 180 196 217 241 292 233 204 152 176 150 148 89 302 324 70 252 195 212 253 292 245 216 228 239 233 196
273 230 207 182 108 38 3 46 232 203 224 322 78 149 196 171 237 186 168 248 243 141 318 239 289 158 188 207 186 191 178 175 216 257 280 166 248 254 217 237 231 226 234 173 192
324 188 181 181 140 135 110 173 237 202 237 358 335 289 243 249 213 139 205 221 211 183 193 215 261 299 337 300 158 180 190 215 233 109 23 264 274 289 261 251 246 246 201 207 207
341 224 202 164 148 135 125 233 219 211 171 99 234 229 244 255 281 210 193 214 229 187 208 243 258 206 88 283 343 145 297 100 243 218 250 267 272 258 290 256 250 257 220 216 211
190 257 209 146 123 229 211 233 233 219 229 234 244 246 231 236 213 243 232 309 9 350 234 343 271 262 151 200 185 97 251 241 298 194 243 262 269 217 260 243 254 256 249 215 210
185 238 157 155 204 199 222 217 223 240 199 243 251 255 258 278 271 256 236 224 247 151 151 176 306 259 250 202 201 208 247 221 238 249 241 236 259 137 194 152 246 246 274 248 220
233 217 198 199 232 232 266 253 233 242 239 220 236 222 225 243 258 236 246 249 249 258 214 193 194 258 297 291 204 201 226 221 236 282 248 250 258 239 287 323 325 273 250 273 258
282 248 187 223 243 242 243 254 246 238 258 254 257 258 249 241 236 249 255 254 233 240 243 163 210 221 235 238 274 265 268 234 226 237 258 250 261 281 269 265 270 270 260 254 235
227 257 341 239 230 240 241 261 262 288 257 261 237 237 244 251 252 250 250 260 254 234 192 179 227 222 234 243 252 254 254 251 255 242 231 259 253 264 268 261 263 271 268 265 250
289 315 16 313 333 331 240 260 272 279 262 268 269 320 312 294 286 282 288 255 237 213 233 227 249 223 227 229 234 243 249 250 251 254 257 250 259 251 261 264 275 267 264 269 266
339 60 8 268 310 266 254 273 318 1 282 318 338 322 309 306 298 298 287 275 279 307 273 226 226 222 241 229 235 236 236 241 243 243 240 241 239 254 267 261 258 263 276 270 261